Date String (YYYY-MM-DD hh:mm:ss) UTC,Instrument flags,absolute air pressure of the measurement (hPa),sample flow rate (lpm),inlet stack bypass flow (lpm),air temperature of the measurement (°C),ambient temperature measured by the external sensor (°C),aerosol sample conditioner tube jacket temperature (°C),OPC LED temperature (°C),internal box temperature (°C),relative humidity of the measurement (%),span deviation,mass concentration of particles derived from Lorenz-Mie calculation of OPC scattering (μg/m³),mass concentration of particles derived from Lorenz-Mie calculation of OPC scattering (μg/m³),mass concentration of particles derived from Lorenz-Mie calculation of OPC scattering (μg/m³)
DateTimeUTC,F1_M11,P_M11,Q1_M11,Q2_M11,T1_M11,T2_M11,T3_M11,T4_M11,T5_M11,U1_M11,ZSPAN_M11,X0_M11,X2_M11,X1_M11
2023-10-22 08:00:00,SystemResetWarning,0827.9,5.00,000.00,029.2,027.9,000.0,037.5,030.8,15.5,0000.0,0017.94,0004.41,0001.87
2023-10-22 08:01:00,SystemResetWarning,0827.9,5.00,000.00,029.2,027.9,000.0,037.5,030.8,15.5,0000.0,0017.46,0004.44,0001.85
2023-10-22 08:02:00,SystemResetWarning,0827.6,5.00,000.00,029.2,027.9,000.0,037.5,030.8,15.5,0000.0,0017.03,0004.46,0001.84
2023-10-22 08:03:00,SystemResetWarning,0827.5,4.98,000.00,029.2,027.1,000.0,037.5,030.8,15.5,0000.0,0017.61,0004.51,0001.82
2023-10-22 08:04:00,SystemResetWarning,0827.8,5.00,000.00,029.1,025.0,000.0,037.4,030.6,15.6,0000.0,0017.83,0004.50,0001.80
2023-10-22 08:05:00,SystemResetWarning,0828.0,5.01,000.00,029.0,024.3,000.0,037.4,030.4,15.7,0000.0,0017.84,0004.49,0001.79
2023-10-22 08:06:00,SystemResetWarning,0827.5,5.00,000.00,028.8,024.4,000.0,037.4,030.1,15.9,0000.0,0017.56,0004.38,0001.78
2023-10-22 08:07:00,SystemResetWarning,0827.4,5.00,000.00,028.7,024.8,000.0,037.3,030.0,16.0,0000.0,0017.47,0004.39,0001.77
2023-10-22 08:08:00,SystemResetWarning,0827.4,5.00,000.00,028.7,025.2,000.0,037.3,030.0,16.1,0000.0,0018.13,0004.37,0001.76
2023-10-22 08:09:00,SystemResetWarning,0827.5,5.00,000.00,028.6,025.6,000.0,037.3,030.1,16.2,0000.0,0018.81,0004.37,0001.77
2023-10-22 08:10:00,SystemResetWarning,0827.9,5.00,000.00,028.6,025.9,000.0,037.3,030.1,16.2,0000.0,0018.72,0004.45,0001.76
2023-10-22 08:11:00,SystemResetWarning,0827.7,5.00,000.00,028.6,026.2,000.0,037.3,030.1,16.2,0000.0,0017.62,0004.56,0001.77
2023-10-22 08:12:00,SystemResetWarning,0827.4,5.00,000.00,028.6,026.4,000.0,037.2,030.2,16.2,0000.0,0018.45,0004.56,0001.78
2023-10-22 08:13:00,SystemResetWarning,0827.5,5.00,000.00,028.6,026.6,000.0,037.2,030.2,16.2,0000.0,0019.28,0004.50,0001.76
2023-10-22 08:14:00,SystemResetWarning,0827.6,5.00,000.00,028.6,026.8,000.0,037.2,030.2,16.2,0000.0,0019.52,0004.45,0001.75
2023-10-22 08:15:00,SystemResetWarning,0827.7,5.00,000.00,028.6,026.9,000.0,037.2,030.2,16.2,0000.0,0019.20,0004.45,0001.74
2023-10-22 08:16:00,SystemResetWarning,0827.4,5.00,000.00,028.6,027.0,000.0,037.2,030.2,16.2,0000.0,0019.36,0004.45,0001.74
2023-10-22 08:17:00,SystemResetWarning,0827.4,5.01,000.00,028.7,027.1,000.0,037.2,030.3,16.1,0000.0,0020.28,0004.50,0001.75
2023-10-22 08:18:00,SystemResetWarning,0827.4,5.00,000.00,028.7,027.2,000.0,037.2,030.3,16.1,0000.0,0020.62,0004.49,0001.75
2023-10-22 08:19:00,SystemResetWarning,0827.4,5.00,000.00,028.7,027.3,000.0,037.2,030.3,16.1,0000.0,0020.69,0004.54,0001.75
2023-10-22 08:20:00,SystemResetWarning,0827.4,4.99,000.00,028.7,027.3,000.0,037.2,030.3,16.1,0000.0,0021.15,0004.57,0001.74
2023-10-22 08:21:00,SystemResetWarning,0827.6,5.00,000.00,028.8,027.4,000.0,037.2,030.4,16.0,0000.0,0021.51,0004.50,0001.73
2023-10-22 08:22:00,SystemResetWarning,0827.7,5.00,000.00,028.8,027.4,000.0,037.2,030.4,16.0,0000.0,0020.51,0004.42,0001.72
2023-10-22 08:23:00,SystemResetWarning,0827.6,5.00,000.00,028.8,027.4,000.0,037.2,030.4,16.0,0000.0,0020.50,0004.35,0001.69
2023-10-22 08:24:00,SystemResetWarning,0827.5,5.00,000.00,028.8,027.5,000.0,037.2,030.4,16.0,0000.0,0019.65,0004.35,0001.71
2023-10-22 08:25:00,SystemResetWarning,0827.6,5.00,000.00,028.8,027.5,000.0,037.2,030.5,16.0,0000.0,0018.86,0004.33,0001.71
2023-10-22 08:26:00,SystemResetWarning,0827.5,5.00,000.00,028.8,027.5,000.0,037.2,030.5,16.0,0000.0,0018.48,0004.31,0001.72
2023-10-22 08:27:00,SystemResetWarning,0827.5,5.01,000.00,028.9,027.6,000.0,037.2,030.5,16.1,0000.0,0019.10,0004.35,0001.73
2023-10-22 08:28:00,SystemResetWarning,0827.5,5.01,000.00,028.9,027.6,000.0,037.2,030.5,16.1,0000.0,0019.25,0004.33,0001.71
2023-10-22 08:29:00,SystemResetWarning,0827.8,5.00,000.00,028.9,027.6,000.0,037.2,030.5,16.0,0000.0,0019.63,0004.37,0001.72
2023-10-22 08:30:00,SystemResetWarning,0827.8,5.00,000.00,028.9,027.6,000.0,037.3,030.6,16.0,0000.0,0019.48,0004.34,0001.72
2023-10-22 08:31:00,SystemResetWarning,0827.5,5.00,000.00,028.9,027.6,000.0,037.3,030.6,16.0,0000.0,0018.27,0004.25,0001.73
2023-10-22 08:32:00,SystemResetWarning,0827.4,5.00,000.00,028.9,027.7,000.0,037.3,030.6,16.0,0000.0,0017.58,0004.24,0001.74
2023-10-22 08:33:00,SystemResetWarning,0827.4,5.00,000.00,029.0,027.7,000.0,037.3,030.6,16.0,0000.0,0018.49,0004.30,0001.75
2023-10-22 08:34:00,SystemResetWarning,0827.4,4.99,000.00,029.0,027.7,000.0,037.3,030.6,15.9,0000.0,0018.95,0004.42,0001.77
2023-10-22 08:35:00,SystemResetWarning,0827.4,4.99,000.00,029.0,027.7,000.0,037.3,030.6,15.9,0000.0,0019.17,0004.48,0001.78
2023-10-22 08:36:00,SystemResetWarning,0827.4,4.99,000.00,029.0,027.7,000.0,037.3,030.7,15.9,0000.0,0019.62,0004.62,0001.76
2023-10-22 08:37:00,SystemResetWarning,0827.4,5.00,000.00,029.0,027.7,000.0,037.4,030.7,15.9,0000.0,0020.51,0004.65,0001.76
2023-10-22 08:38:00,SystemResetWarning,0827.4,5.01,000.00,029.0,027.8,000.0,037.4,030.7,15.9,0000.0,0021.02,0004.63,0001.76
2023-10-22 08:39:00,SystemResetWarning,0827.4,5.00,000.00,029.1,027.8,000.0,037.4,030.6,15.8,0000.0,0021.79,0004.59,0001.76
2023-10-22 08:40:00,SystemResetWarning,0827.4,4.99,000.00,029.1,027.8,000.0,037.4,030.7,15.8,0000.0,0022.00,0004.65,0001.76
2023-10-22 08:41:00,SystemResetWarning,0827.4,5.00,000.00,029.1,027.8,000.0,037.4,030.7,15.8,0000.0,0022.96,0004.66,0001.75
2023-10-22 08:42:00,SystemResetWarning,0827.4,5.00,000.00,029.1,027.8,000.0,037.4,030.7,15.8,0000.0,0022.59,0004.69,0001.75
2023-10-22 08:43:00,SystemResetWarning,0827.4,5.00,000.00,029.1,027.8,000.0,037.4,030.7,15.8,0000.0,0022.67,0004.77,0001.75
2023-10-22 08:44:00,SystemResetWarning,0827.3,5.00,000.00,029.1,027.8,000.0,037.4,030.7,15.8,0000.0,0021.62,0004.71,0001.75
2023-10-22 08:45:00,SystemResetWarning,0827.4,5.00,000.00,029.1,027.8,000.0,037.5,030.7,15.8,0000.0,0021.06,0004.67,0001.74
2023-10-22 08:46:00,SystemResetWarning,0827.4,5.00,000.00,029.2,027.9,000.0,037.5,030.7,15.8,0000.0,0020.53,0004.67,0001.73
2023-10-22 08:47:00,SystemResetWarning,0827.4,5.00,000.00,029.2,027.9,000.0,037.5,030.8,15.9,0000.0,0021.98,0004.62,0001.74
2023-10-22 08:48:00,SystemResetWarning,0827.4,5.00,000.00,029.2,027.9,000.0,037.5,030.8,16.0,0000.0,0021.94,0004.53,0001.74
2023-10-22 08:49:00,SystemResetWarning,0827.3,5.00,000.00,029.2,027.9,000.0,037.5,030.8,16.0,0000.0,0021.96,0004.56,0001.74
2023-10-22 08:50:00,SystemResetWarning,0827.4,5.00,000.00,029.2,027.9,000.0,037.5,030.8,15.9,0000.0,0022.45,0004.60,0001.74
2023-10-22 08:51:00,SystemResetWarning,0827.3,5.00,000.00,029.2,027.9,000.0,037.5,030.8,16.0,0000.0,0021.86,0004.57,0001.74
2023-10-22 08:52:00,SystemResetWarning,0827.3,5.00,000.00,029.2,027.9,000.0,037.6,030.8,15.9,0000.0,0021.32,0004.54,0001.73
2023-10-22 08:53:00,SystemResetWarning,0827.3,5.00,000.00,029.2,027.9,000.0,037.6,030.8,15.8,0000.0,0021.78,0004.53,0001.71
2023-10-22 08:54:00,SystemResetWarning,0827.2,5.00,000.00,029.2,027.9,000.0,037.6,030.9,15.8,0000.0,0021.72,0004.47,0001.69
2023-10-22 08:55:00,SystemResetWarning,0827.2,5.00,000.00,029.2,027.9,000.0,037.6,030.9,15.9,0000.0,0022.25,0004.49,0001.68
2023-10-22 08:56:00,SystemResetWarning,0827.2,5.00,000.00,029.2,027.9,000.0,037.6,030.9,15.9,0000.0,0022.31,0004.43,0001.68
2023-10-22 08:57:00,SystemResetWarning,0827.3,5.00,000.00,029.3,027.9,000.0,037.6,030.9,16.0,0000.0,0021.91,0004.36,0001.68
2023-10-22 08:58:00,SystemResetWarning,0827.2,5.00,000.00,029.3,027.9,000.0,037.6,030.9,16.0,0000.0,0021.69,0004.32,0001.69
2023-10-22 08:59:00,SystemResetWarning,0827.2,5.00,000.00,029.3,027.9,000.0,037.6,030.9,15.9,0000.0,0021.91,0004.36,0001.69
